Regional Weather Roundup
Issued by NWS

Current Version | Previous Version | Text Only | Print | Product List | Glossary On
Versions: 1 2 3 4 5 6 7 8 9 10 11 12 13 14 15 16 17 18 19 20 21 22 23 24 25 26 27 28 29 30 31 32 33 34 35 36 37 38 39 40 41 42 43 44 45 46 47 48 49 50
000
ASUS43 KOAX 270710
RWRNE

WEATHER ROUNDUP FOR NEBRASKA
NATIONAL WEATHER SERVICE OMAHA NE
200 AM CDT SAT MAY 27 2017

NOTES: SATELLITE DATA IS BEING USED TO AUGMENT CLOUD COVER ABOVE
       12000 FEET.
       "FAIR" INDICATES FEW OR NO CLOUDS BELOW 12,000 FEET WITH NO
       SIGNIFICANT WEATHER AND/OR OBSTRUCTIONS TO VISIBILITY.

  * THESE STATIONS DO NOT REPORT WEATHER SUCH AS RAIN...SNOW OR FOG.

NEZ001>004-019>022-054>056-270800-
NEBRASKA PANHANDLE

CITY           SKY/WX    TMP DP  RH WIND       PRES   REMARKS
SCOTTSBLUFF    CLOUDY    48  45  89 S9        29.96F
ALLIANCE       CLOUDY    49  48  97 NE9       29.96F
CHADRON        CLOUDY    50  47  89 N9        29.98R
GORDON         FAIR      49  47  92 SE7       29.94F
KIMBALL        CLOUDY    48  47  97 N5        30.00S
SIDNEY         CLOUDY    51  49  92 N15       29.97S
$$

NEZ057>060-069>072-079>082-270800-
SOUTHWEST NEBRASKA

CITY           SKY/WX    TMP DP  RH WIND       PRES   REMARKS
NORTH PLATTE   LGT RAIN  58  55  90 NW7       29.95R
IMPERIAL       CLOUDY    56  49  77 N7        29.91R
LEXINGTON      RAIN      59  55  85 CALM      29.97R
MCCOOK         LGT RAIN  57  56  96 S7        29.93F
OGALLALA       LGT RAIN  55  53  93 E3        29.96R
$$

NEZ005>010-023>029-035>040-094-270800-
NORTH CENTRAL NEBRASKA

CITY           SKY/WX    TMP DP  RH WIND       PRES   REMARKS
VALENTINE      LGT RAIN  54  48  80 NW8       29.98R
AINSWORTH      LGT RAIN  56  52  87 SW3       29.98R
BROKEN BOW     LGT RAIN  60  49  66 SE5       29.93R
O`NEILL        CLOUDY    59  48  66 CALM      29.93S
ORD            CLOUDY    61  44  53 CALM      29.89F
THEDFORD       HVY RAIN  54  52  94 CALM      29.98F
$$

NEZ041-046>049-061>064-073>077-083>087-270800-
SOUTH CENTRAL NEBRASKA

CITY           SKY/WX    TMP DP  RH WIND       PRES   REMARKS
GRAND ISLAND   CLOUDY    60  47  61 NE8       29.91F
AURORA         MOCLDY    59  47  64 NE8       29.90F
HASTINGS       CLOUDY    60  50  69 NE7       29.91S
HEBRON         CLOUDY    58  53  80 CALM      29.88S
HOLDREGE       LGT RAIN  63  52  68 W12       29.94R
KEARNEY *      CLOUDY    61  46  59 NE3       29.93R
YORK           CLOUDY    57  48  72 NE7       29.90S
$$

NEZ011>018-030>034-042>045-270800-
NORTHEAST NEBRASKA

CITY           SKY/WX    TMP DP  RH WIND       PRES   REMARKS
NORFOLK        MOCLDY    52  47  83 CALM      29.92
ALBION         CLOUDY    59  46  61 CALM      29.91F
BLAIR          CLOUDY    62  47  57 N9        29.90R
FREMONT        PTCLDY    59  46  62 CALM      29.90F
TEKAMAH        CLOUDY    56  48  74 NW3       29.89R
WAYNE          PTCLDY    51  48  88 CALM      29.92S
$$

NEZ050>053-065>068-078-088>093-270800-
SOUTHEAST NEBRASKA

CITY           SKY/WX    TMP DP  RH WIND       PRES   REMARKS
LINCOLN        CLOUDY    59  50  72 N6        29.89S
OMAHA EPPLEY   CLOUDY    57  50  77 N6        29.89R
BEATRICE       CLOUDY    62  53  72 NE6       29.87S
FALLS CITY     MOCLDY    68  51  54 N3        29.84S
NEBRASKA CITY  CLOUDY    66  47  50 N8        29.88S
PLATTSMOUTH    CLOUDY    65  50  56 N3        29.89S
$$

NEZ044-045-051>053-067-270800-
OMAHA AREA

CITY           SKY/WX    TMP DP  RH WIND       PRES   REMARKS
OMAHA EPPLEY   CLOUDY    57  50  77 N6        29.89R
BLAIR          CLOUDY    62  47  57 N9        29.90R
FREMONT        PTCLDY    59  46  62 CALM      29.90F
MILLARD        CLOUDY    65  49  55 CALM      29.89R
OFFUTT AFB     PTCLDY    62  48  62 CALM      29.88R
PLATTSMOUTH    CLOUDY    65  50  56 N3        29.89S
WAHOO          FAIR      57  48  72 N8        29.89F
$$



USA.gov is the U.S. government's official web portal to all federal, state and local government web resources and services.